#timestamp,LO_Frequency,Hit,StdDev 
1458392415.3,286047002.6,N
1458392435.1,286047004.1,N
1458392436.0,286047004.1,N
1458392455.8,286047004.0,N
1458392475.6,286047002.6,N
1458392495.5,286047002.6,N
1458392515.3,286047000.2,N
1458392535.1,286047000.1,N
1458392555.9,286046997.4,N
1458392575.7,286046998.1,N
1458392595.5,286046999.2,N
1458392615.4,286046996.7,N
1458392635.2,286046996.7,N
1458392655.0,286046997.7,N
1458392655.9,286046997.7,N
1458392675.8,286046997.4,N
1458392695.6,286046998.6,N
1458392715.4,286047000.3,N
1458392735.3,286046998.8,N
1458392755.1,286046999.1,N
1458392756.0,286046999.1,N
1458392775.8,286046997.7,N
1458392795.7,286046996.4,N
1458392815.5,286046994.2,N
1458392835.3,286046992.1,Y
1458392855.2,286046995.7,P
1458392875.9,286046994.7,N
1458392895.7,286046994.2,N
1458392915.6,286046996.2,N
1458392935.4,286046995.6,N
1458392955.2,286046997.4,N
1458392975.0,286047001.7,N
1458392975.9,286047001.7,N
1458392995.8,286047003.9,N
1458393015.6,286047002.6,N
1458393035.4,286046999.8,N
1458393055.3,286047000.1,N
1458393075.1,286046998.9,N
1458393076.0,286046998.9,N
1458393095.8,286047000.4,N
1458393115.7,286047001.1,N
1458393135.5,286047000.7,N
1458393155.3,286046998.7,N
1458393175.2,286046996.7,N
1458393195.9,286046996.9,N
1458393215.7,286047001.2,N
1458393235.5,286047002.2,N
1458393255.4,286047003.1,N
1458393275.2,286047006.8,N
1458393295.0,286047008.0,N
1458393295.9,286047008.0,N
1458393315.8,286047004.8,N
1458393335.6,286047005.5,N
1458393355.4,286047001.7,N
1458393375.3,286047002.1,N
1458393395.1,286047002.6,N
1458393415.8,286047003.9,N
1458393435.7,286047005.5,N
1458393455.5,286047003.4,N
1458393475.3,286047002.8,N
1458393495.2,286047005.5,N
1458393515.9,286047001.7,N
1458393535.7,286047006.9,N
1458393555.5,286047006.6,N
1458393575.4,286047004.9,N
1458393595.2,286047002.9,N
1458393615.0,286047003.4,N
1458393615.9,286047003.4,N
1458393635.8,286046998.5,N
1458393655.6,286046999.9,N
1458393675.4,286047000.4,N
1458393695.3,286046999.0,N
1458393715.1,286046999.3,N
1458393735.8,286046996.6,N
1458393755.7,286047000.6,N
1458393775.5,286046998.7,N
1458393795.3,286047002.0,N
1458393815.2,286047004.0,N
1458393835.9,286047004.3,N
1458393855.7,286047000.9,N
1458393875.6,286047000.6,N
1458393895.4,286047005.0,N
1458393915.2,286047007.5,N
1458393935.0,286047004.7,N
1458393936.0,286047004.7,N
1458393955.8,286047001.3,N
1458393975.6,286047006.3,N
1458393995.4,286047006.3,N
1458394015.3,286047008.8,Y
1458394035.1,286047007.6,P
1458394055.8,286047007.2,N
1458394075.7,286047006.5,N
1458394095.5,286047010.2,Y
1458394115.3,286047000.5,P
1458394135.2,286047001.1,N
1458394155.0,286046997.8,N
1458394155.9,286046997.8,N
1458394175.7,286046998.5,N
1458394195.6,286047003.8,N
1458394215.4,286047003.9,N
1458394235.2,286047004.1,N
1458394255.1,286047007.1,N
1458394256.0,286047007.1,N
1458394275.8,286047010.2,N
1458394295.6,286047011.7,Y
1458394315.5,286047011.8,P
1458394335.3,286047016.7,P
1458394355.1,286047013.8,N
1458394375.9,286047011.4,N
1458394395.7,286047011.4,N
1458394415.5,286047008.2,N
1458394435.4,286047010.6,N
1458394455.2,286047010.6,N
1458394475.0,286047009.6,N
1458394475.9,286047009.6,N
1458394495.8,286047008.9,N
1458394515.6,286047006.8,N
1458394535.4,286047006.2,N
1458394555.2,286047008.4,N
1458394575.1,286047012.8,Y
1458394576.0,286047012.8,P
1458394595.8,286047003.8,N
1458394615.7,286047005.8,N
1458394635.5,286047003.3,N
1458394655.3,286047004.4,N
1458394675.1,286047004.1,N
1458394695.9,286047001.4,N
1458394715.7,286047000.9,N
1458394735.5,286047000.5,N
1458394755.4,286047003.5,N
1458394775.2,286047006.0,N
1458394795.0,286047000.1,N
1458394795.9,286047000.1,N
1458394815.8,286046999.2,N
1458394835.6,286046998.1,N
1458394855.4,286047000.0,N
1458394875.3,286046996.7,N
1458394895.1,286046996.7,N
1458394896.0,286046996.7,N
1458394915.8,286046997.0,N
1458394935.7,286046999.1,N
1458394955.5,286047002.4,N
1458394975.3,286047003.8,N
1458394995.1,286047005.6,N
1458395015.9,286047005.8,N
1458395035.7,286047003.0,N
1458395055.5,286047005.9,N
1458395075.4,286047003.1,N
1458395095.2,286047003.5,N
1458395115.0,286047001.8,N
1458395115.9,286047001.8,N
1458395135.8,286046999.7,N
1458395155.6,286047001.3,N
1458395175.4,286047001.2,N
1458395195.3,286047001.2,N
1458395215.1,286046999.0,N
1458395216.0,286046999.0,N
1458395235.8,286046996.9,N
1458395255.7,286046996.2,N
1458395275.5,286046992.3,N
1458395295.3,286046992.6,N
1458395315.1,286046999.6,N
1458395335.9,286046996.9,N
1458395355.7,286046995.5,N
1458395375.5,286046994.0,N
1458395395.4,286046996.8,N
1458395415.2,286046999.2,N
1458395435.0,286046995.7,N
1458395435.9,286046995.7,N
1458395455.8,286046995.6,N
1458395475.6,286046995.9,N
1458395495.4,286046994.6,N
1458395515.3,286046992.9,N
1458395535.1,286046993.9,N
1458395536.0,286046993.9,N
1458395555.8,286046997.6,N
1458395575.7,286046996.1,N
1458395595.5,286046995.4,N
1458395615.3,286046996.9,N
1458395635.2,286046996.4,N
1458395655.9,286046993.8,N
1458395675.7,286046990.6,Y
1458395695.6,286046991.7,P
1458395715.4,286046994.0,N
1458395735.2,286046993.6,P
1458395755.1,286046995.1,N
1458395756.0,286046995.1,Y
1458395775.8,286047002.1,P
1458395795.6,286047000.1,N
1458395815.5,286047005.2,N
1458395835.3,286047006.0,N
1458395855.1,286047003.7,N
1458395875.9,286047003.3,N
1458395895.7,286047002.2,N
1458395915.5,286046999.3,N
1458395935.3,286047000.3,N
1458395955.2,286046999.1,N
1458395975.0,286047000.8,N
1458395975.9,286047000.8,N
1458395995.7,286047002.3,N
